This is the latest recevied weather packets stored in our database for station/object SR4DIG-13. If no packets are shown the sender has not sent any weather packets the latest 10 day(s).
| Time | Temp. | Humidity | Pressure | Rain* | Wind** | Luminosity | Snow |
|---|---|---|---|---|---|---|---|
| 1788076521 | 28.33° C | 53% | 1015.9 hPa | 0 mm | - | - | - |
| 1788076220 | 28.33° C | 55% | 1015.9 hPa | 0 mm | - | - | - |
| 1788075931 | 27.22° C | 55% | 1015.9 hPa | 0 mm | - | - | - |
| 1788075619 | 26.11° C | 57% | 1015.7 hPa | 0 mm | - | - | - |
| 1788075318 | 26.11° C | 55% | 1015.7 hPa | 0 mm | - | - | - |
| 1788075017 | 27.22° C | 53% | 1015.7 hPa | 0 mm | - | - | - |
| 1788074716 | 26.11° C | 58% | 1015.8 hPa | 0 mm | - | - | - |
| 1788074165 | 26.11° C | 57% | 1015.7 hPa | 0 mm | - | - | - |
| 1788073864 | 26.67° C | 58% | 1015.7 hPa | 0 mm | - | - | - |
| 1788073563 | 26.11° C | 60% | 1015.7 hPa | 0 mm | - | - | - |
| 1788073262 | 25.56° C | 60% | 1015.8 hPa | 0 mm | - | - | - |
| 1788072961 | 26.11° C | 60% | 1015.7 hPa | 0 mm | - | - | - |
| 1788072660 | 26.67° C | 60% | 1015.5 hPa | 0 mm | - | - | - |
| 1788072366 | 26.11° C | 62% | 1015.6 hPa | 0 mm | - | - | - |
| 1788072059 | 25.56° C | 64% | 1015.6 hPa | 0 mm | - | - | - |
| 1788071758 | 24.44° C | 66% | 1015.6 hPa | 0 mm | - | - | - |
| 1788071457 | 23.89° C | 67% | 1015.6 hPa | 0 mm | - | - | - |
| 1788071156 | 23.89° C | 67% | 1015.5 hPa | 0 mm | - | - | - |
| 1788070855 | 24.44° C | 68% | 1015.5 hPa | 0 mm | - | - | - |
| 1788070554 | 23.89° C | 70% | 1015.5 hPa | 0 mm | - | - | - |
| 1788070254 | 23.89° C | 72% | 1015.5 hPa | 0 mm | - | - | - |
| 1788069952 | 23.33° C | 74% | 1015.5 hPa | 0 mm | - | - | - |
| 1788069651 | 22.78° C | 76% | 1015.5 hPa | 0 mm | - | - | - |
| 1788069350 | 21.67° C | 79% | 1015.4 hPa | 0 mm | - | - | - |
| 1788069049 | 20.56° C | 81% | 1015.4 hPa | 0 mm | - | - | - |
* Rain latest hour (hover to see other rain measurements)
** Current wind speed in m/s (hover to see current wind gust speed)